Time,TemperatureF,DewpointF,PressureIn,WindDirection,WindDirectionDegrees,WindSpeedMPH,WindSpeedGustMPH,Humidity,HourlyPrecipIn,Conditions,Clouds,dailyrainin,SoftwareType,DateUTC
2013-06-12 00:00:00,69.3,64.2,29.89,South,180,0.0,0.0,84,0.00,,,0.00,pywws,2013-06-12 04:00:00,
2013-06-12 00:30:00,68.7,63.7,29.89,South,180,0.0,0.0,84,0.00,,,0.00,pywws,2013-06-12 04:30:00,
2013-06-12 01:00:00,68.7,64.0,29.89,South,180,0.7,1.6,85,0.00,,,0.00,pywws,2013-06-12 05:00:00,
2013-06-12 01:30:00,69.3,63.2,29.88,SE,135,0.0,0.0,81,0.00,,,0.00,pywws,2013-06-12 05:30:00,
2013-06-12 02:00:00,68.7,63.3,29.88,South,180,1.6,2.2,83,0.00,,,0.00,pywws,2013-06-12 06:00:00,
2013-06-12 02:30:00,68.7,63.3,29.87,South,180,0.0,1.6,83,0.00,,,0.00,pywws,2013-06-12 06:30:00,
2013-06-12 03:00:00,67.6,63.0,29.88,South,180,0.0,0.0,85,0.00,,,0.00,pywws,2013-06-12 07:00:00,
2013-06-12 03:30:00,67.5,63.4,29.87,South,180,0.0,0.0,87,0.00,,,0.00,pywws,2013-06-12 07:30:00,
2013-06-12 04:00:00,66.4,63.4,29.87,South,180,0.7,1.6,90,0.00,,,0.00,pywws,2013-06-12 08:00:00,
2013-06-12 04:30:00,66.0,63.9,29.87,South,180,0.0,0.0,93,0.00,,,0.00,pywws,2013-06-12 08:30:00,
2013-06-12 05:00:00,68.5,66.1,29.87,South,180,0.0,0.7,92,0.00,,,0.00,pywws,2013-06-12 09:00:00,
2013-06-12 05:30:00,68.5,64.2,29.88,West,270,0.0,0.0,86,0.00,,,0.00,pywws,2013-06-12 09:30:00,
2013-06-12 06:00:00,66.4,63.7,29.90,North,0,1.6,2.2,91,0.00,,,0.00,pywws,2013-06-12 10:00:00,
2013-06-12 06:30:00,65.1,63.6,29.92,West,270,0.0,0.7,95,0.00,,,0.00,pywws,2013-06-12 10:30:00,
2013-06-12 07:00:00,65.5,64.0,29.92,West,270,0.0,0.7,95,0.00,,,0.00,pywws,2013-06-12 11:00:00,
2013-06-12 07:30:00,66.4,64.3,29.92,West,270,1.6,2.2,93,0.00,,,0.00,pywws,2013-06-12 11:30:00,
2013-06-12 08:00:00,68.9,64.9,29.92,North,0,0.0,0.0,87,0.00,,,0.00,pywws,2013-06-12 12:00:00,
2013-06-12 08:30:00,70.3,64.6,29.92,SE,135,2.2,3.1,82,0.00,,,0.00,pywws,2013-06-12 12:30:00,
2013-06-12 09:00:00,74.1,65.3,29.91,North,0,0.0,0.0,74,0.00,,,0.00,pywws,2013-06-12 13:00:00,
2013-06-12 09:30:00,76.1,65.2,29.92,East,90,2.2,3.1,69,0.00,,,0.00,pywws,2013-06-12 13:30:00,
2013-06-12 10:00:00,78.4,66.6,29.91,North,0,0.7,2.2,67,0.00,,,0.00,pywws,2013-06-12 14:00:00,
2013-06-12 10:30:00,78.8,64.2,29.92,North,0,1.6,3.1,61,0.00,,,0.00,pywws,2013-06-12 14:30:00,
2013-06-12 11:00:00,74.1,64.1,29.93,West,270,0.7,1.6,71,0.00,,,0.00,pywws,2013-06-12 15:00:00,
2013-06-12 11:30:00,74.5,64.8,29.94,North,0,0.0,0.7,72,0.00,,,0.00,pywws,2013-06-12 15:30:00,
2013-06-12 12:00:00,72.9,64.1,29.94,SE,135,0.0,0.0,74,0.00,,,0.00,pywws,2013-06-12 16:00:00,
2013-06-12 12:30:00,73.2,64.8,29.93,North,0,0.0,0.0,75,0.00,,,0.00,pywws,2013-06-12 16:30:00,
2013-06-12 12:35:00,72.7,63.9,29.93,North,0,2.2,3.1,74,0.00,,,0.00,pywws,2013-06-12 16:35:00,
2013-06-12 12:40:00,73.6,65.5,29.93,West,270,0.0,0.0,76,0.00,,,0.00,pywws,2013-06-12 16:40:00,
2013-06-12 12:45:00,74.7,66.2,29.93,West,270,0.0,0.7,75,0.00,,,0.00,pywws,2013-06-12 16:45:00,
2013-06-12 12:49:00,74.7,66.2,29.94,West,270,0.0,0.7,75,0.00,,,0.00,pywws,2013-06-12 16:49:00,
2013-06-12 12:54:00,74.1,65.3,29.94,North,0,0.7,1.6,74,0.00,,,0.00,pywws,2013-06-12 16:54:00,
2013-06-12 12:59:00,73.9,65.1,29.95,North,0,0.0,0.0,74,0.00,,,0.00,pywws,2013-06-12 16:59:00,
2013-06-12 13:04:00,73.0,63.9,29.95,West,270,0.0,1.6,73,0.00,,,0.00,pywws,2013-06-12 17:04:00,
2013-06-12 13:09:00,72.9,64.1,29.95,NW,315,0.0,1.6,74,0.00,,,0.00,pywws,2013-06-12 17:09:00,
2013-06-12 13:24:00,72.9,64.1,29.93,North,0,1.6,3.1,74,0.00,,,0.00,pywws,2013-06-12 17:24:00,
2013-06-12 13:25:00,72.3,63.9,29.94,North,0,0.7,2.2,75,0.00,,,0.00,pywws,2013-06-12 17:25:00,
2013-06-12 13:30:00,72.0,64.0,29.94,West,270,0.7,1.6,76,0.00,,,0.00,pywws,2013-06-12 17:30:00,
2013-06-12 13:35:00,71.8,63.8,29.93,SE,135,0.0,0.0,76,0.00,,,0.00,pywws,2013-06-12 17:35:00,
2013-06-12 13:40:00,71.6,63.6,29.94,North,0,0.7,1.6,76,0.00,,,0.00,pywws,2013-06-12 17:40:00,
2013-06-12 13:53:00,71.2,64.0,29.93,North,0,0.7,1.6,78,0.00,,,0.00,pywws,2013-06-12 17:53:00,
2013-06-12 14:03:00,70.9,64.0,29.91,NE,45,0.0,0.7,79,0.00,,,0.00,pywws,2013-06-12 18:03:00,
2013-06-12 14:12:00,70.5,64.0,29.88,East,90,0.7,1.6,80,0.00,,,0.00,pywws,2013-06-12 18:12:00,
2013-06-12 14:23:00,72.0,64.7,29.86,SE,135,1.6,2.2,78,0.00,,,0.00,pywws,2013-06-12 18:23:00,
2013-06-12 14:32:00,72.9,64.8,29.84,South,180,1.6,3.8,76,0.00,,,0.00,pywws,2013-06-12 18:32:00,
2013-06-12 14:43:00,74.7,66.2,29.84,North,0,3.8,6.0,75,0.00,,,0.00,pywws,2013-06-12 18:43:00,
2013-06-12 14:52:00,74.8,66.4,29.85,SE,135,1.6,2.2,75,0.00,,,0.00,pywws,2013-06-12 18:52:00,
2013-06-12 15:03:00,75.4,66.1,29.86,North,0,0.0,0.0,73,0.00,,,0.00,pywws,2013-06-12 19:03:00,
2013-06-12 15:12:00,75.6,66.3,29.86,South,180,3.1,3.8,73,0.00,,,0.00,pywws,2013-06-12 19:12:00,
2013-06-12 15:23:00,75.2,66.3,29.86,South,180,0.0,0.0,74,0.00,,,0.00,pywws,2013-06-12 19:23:00,
2013-06-12 15:32:00,75.4,66.5,29.88,SE,135,3.1,4.5,74,0.00,,,0.00,pywws,2013-06-12 19:32:00,
2013-06-12 15:43:00,74.8,67.5,29.87,North,0,2.2,3.1,78,0.00,,,0.00,pywws,2013-06-12 19:43:00,
2013-06-12 15:52:00,75.0,68.8,29.88,South,180,0.0,0.0,81,0.00,,,0.00,pywws,2013-06-12 19:52:00,
2013-06-12 16:03:00,75.0,68.4,29.87,SE,135,1.6,2.2,80,0.00,,,0.00,pywws,2013-06-12 20:03:00,
2013-06-12 16:12:00,75.7,68.4,29.87,East,90,0.0,1.6,78,0.00,,,0.00,pywws,2013-06-12 20:12:00,
2013-06-12 16:23:00,76.1,68.7,29.88,North,0,0.0,0.0,78,0.00,,,0.00,pywws,2013-06-12 20:23:00,
2013-06-12 16:32:00,75.0,67.7,29.87,North,0,0.0,0.7,78,0.00,,,0.00,pywws,2013-06-12 20:32:00,
2013-06-12 16:43:00,74.1,67.2,29.88,West,270,0.0,1.6,79,0.00,,,0.00,pywws,2013-06-12 20:43:00,
2013-06-12 16:52:00,72.7,66.1,29.89,North,0,1.6,2.2,80,0.00,,,0.00,pywws,2013-06-12 20:52:00,
2013-06-12 17:03:00,72.1,64.9,29.87,North,0,0.0,0.0,78,0.00,,,0.00,pywws,2013-06-12 21:03:00,
2013-06-12 17:12:00,71.8,65.6,29.87,East,90,0.7,1.6,81,0.00,,,0.00,pywws,2013-06-12 21:12:00,
2013-06-12 17:23:00,72.1,66.0,29.86,West,270,0.0,1.6,81,0.00,,,0.00,pywws,2013-06-12 21:23:00,
2013-06-12 17:32:00,72.7,66.1,29.85,South,180,3.1,4.5,80,0.00,,,0.00,pywws,2013-06-12 21:32:00,
2013-06-12 17:43:00,73.4,67.2,29.86,South,180,0.7,1.6,81,0.00,,,0.00,pywws,2013-06-12 21:43:00,
2013-06-12 17:52:00,73.4,67.6,29.83,East,90,0.0,0.0,82,0.00,,,0.00,pywws,2013-06-12 21:52:00,
2013-06-12 18:04:00,74.5,68.3,29.85,South,180,0.0,0.0,81,0.00,,,0.00,pywws,2013-06-12 22:04:00,
2013-06-12 18:12:00,74.7,68.4,29.85,East,90,0.0,0.0,81,0.00,,,0.00,pywws,2013-06-12 22:12:00,
2013-06-12 18:23:00,74.3,69.1,29.84,North,0,0.0,0.0,84,0.00,,,0.00,pywws,2013-06-12 22:23:00,
2013-06-12 18:32:00,74.7,69.1,29.84,North,0,0.0,0.0,83,0.00,,,0.00,pywws,2013-06-12 22:32:00,
2013-06-12 18:44:00,74.3,69.5,29.85,North,0,0.0,0.0,85,0.00,,,0.00,pywws,2013-06-12 22:44:00,
2013-06-12 18:52:00,73.8,69.0,29.85,North,0,0.7,1.6,85,0.00,,,0.00,pywws,2013-06-12 22:52:00,
2013-06-12 19:03:00,73.8,69.0,29.84,North,0,1.6,3.1,85,0.00,,,0.00,pywws,2013-06-12 23:03:00,
2013-06-12 19:13:00,73.6,68.8,29.84,South,180,0.0,1.6,85,0.00,,,0.00,pywws,2013-06-12 23:13:00,
2013-06-12 19:23:00,73.6,68.4,29.84,North,0,0.0,0.0,84,0.00,,,0.00,pywws,2013-06-12 23:23:00,
2013-06-12 19:32:00,73.2,68.4,29.87,West,270,0.0,0.0,85,0.00,,,0.00,pywws,2013-06-12 23:32:00,
2013-06-12 19:43:00,72.5,68.4,29.85,South,180,0.0,0.0,87,0.00,,,0.00,pywws,2013-06-12 23:43:00,
2013-06-12 19:52:00,72.5,68.7,29.83,East,90,0.0,0.0,88,0.00,,,0.00,pywws,2013-06-12 23:52:00,
2013-06-12 20:03:00,72.5,69.1,29.83,North,0,0.7,3.1,89,0.00,,,0.00,pywws,2013-06-13 00:03:00,
2013-06-12 20:12:00,72.5,69.1,29.82,South,180,0.7,2.2,89,0.00,,,0.00,pywws,2013-06-13 00:12:00,
2013-06-12 20:23:00,72.3,68.9,29.81,SE,135,0.0,0.0,89,0.00,,,0.00,pywws,2013-06-13 00:23:00,
2013-06-12 20:32:00,72.3,68.6,29.81,South,180,0.0,0.0,88,0.00,,,0.00,pywws,2013-06-13 00:32:00,
2013-06-12 20:43:00,72.1,68.7,29.79,East,90,0.0,0.7,89,0.00,,,0.00,pywws,2013-06-13 00:43:00,
2013-06-12 20:52:00,72.7,69.2,29.80,South,180,1.6,2.2,89,0.00,,,0.00,pywws,2013-06-13 00:52:00,
2013-06-12 21:03:00,72.5,68.7,29.80,South,180,0.7,1.6,88,0.00,,,0.00,pywws,2013-06-13 01:03:00,
2013-06-12 21:12:00,72.3,68.6,29.79,South,180,0.0,2.2,88,0.00,,,0.00,pywws,2013-06-13 01:12:00,
2013-06-12 21:23:00,72.5,68.7,29.80,South,180,0.0,1.6,88,0.00,,,0.00,pywws,2013-06-13 01:23:00,
2013-06-12 21:32:00,72.5,68.4,29.80,South,180,0.7,2.2,87,0.00,,,0.00,pywws,2013-06-13 01:32:00,
2013-06-12 21:43:00,72.9,68.4,29.80,South,180,0.7,2.2,86,0.00,,,0.00,pywws,2013-06-13 01:43:00,
2013-06-12 21:52:00,72.9,68.4,29.79,South,180,0.7,2.2,86,0.00,,,0.00,pywws,2013-06-13 01:52:00,
2013-06-12 22:04:00,72.7,68.2,29.78,South,180,2.2,5.4,86,0.00,,,0.00,pywws,2013-06-13 02:04:00,
2013-06-12 22:12:00,72.9,68.1,29.78,South,180,1.6,3.1,85,0.00,,,0.00,pywws,2013-06-13 02:12:00,
2013-06-12 22:24:00,73.0,67.9,29.77,South,180,4.5,7.6,84,0.00,,,0.00,pywws,2013-06-13 02:24:00,
2013-06-12 22:35:00,72.9,67.7,29.75,South,180,2.2,4.5,84,0.00,,,0.00,pywws,2013-06-13 02:35:00,
2013-06-12 22:51:00,72.9,67.4,29.75,SE,135,3.1,4.5,83,0.00,,,0.00,pywws,2013-06-13 02:51:00,
2013-06-12 23:11:00,73.2,67.7,29.75,South,180,0.7,2.2,83,0.00,,,0.00,pywws,2013-06-13 03:11:00,
2013-06-12 23:21:00,73.2,67.7,29.74,SE,135,5.4,6.9,83,0.00,,,0.00,pywws,2013-06-13 03:21:00,
2013-06-12 23:31:00,73.4,68.6,29.72,South,180,2.2,4.5,85,0.00,,,0.00,pywws,2013-06-13 03:31:00,
2013-06-12 23:41:00,73.2,68.1,29.74,North,0,0.0,0.0,84,0.00,,,0.00,pywws,2013-06-13 03:41:00,
2013-06-12 23:51:00,71.4,67.7,29.72,South,180,0.0,1.6,88,0.00,,,0.00,pywws,2013-06-13 03:51:00,